Regional Weather Roundup
Issued by NWS Newport/Morehead, NC

Current Version | Previous Version | Graphics & Text | Print | Product List | Glossary On
Versions: 1 2 3 4 5 6 7 8 9 10 11 12 13 14 15 16 17 18 19 20 21 22 23 24 25 26 27 28 29 30 31 32 33 34 35 36 37 38 39 40 41 42 43 44 45 46 47 48 49 50
000 ASUS42 KMHX 060825 RWRMHX WEATHER ROUNDUP FOR EASTERN NORTH CAROLINA NATIONAL WEATHER SERVICE NEWPORT/MOREHEAD CITY NC 400 AM EDT FRI MAY 06 2016 NOTE: "FAIR" INDICATES FEW OR NO CLOUDS BELOW 12,000 FEET WITH NO SIGNIFICANT WEATHER AND/OR OBSTRUCTIONS TO VISIBILITY NCZ015>017-031-032-045>047-102-103-060900- NORTH COAST CITY SKY/WX TMP DP RH WIND PRES REMARKS EDENTON CLOUDY 53 53 100 CALM 29.65R ELIZABETH CITY CLOUDY 51 50 96 W3 29.63F KITTY HAWK CLOUDY 51 49 95 CALM 29.61S MANTEO CLOUDY 52 49 90 CALM 29.63S $$ NCZ045>047-081-094-103-104-060900- CENTRAL COAST CITY SKY/WX TMP DP RH WIND PRES REMARKS FRISCO MOCLDY 53 49 86 NW5 29.63S SWANQUARTER NOT AVBL $$ NCZ095-097-098-100-101-060900- SOUTHERN COAST CITY SKY/WX TMP DP RH WIND PRES REMARKS BEAUFORT CLEAR 53 50 89 W9 29.64S CEDAR ISLAND NOT AVBL JACKSONVILLE MOCLDY 48 46 93 W5 29.65S PINEY ISLAND MOSUNNY N/A N/A N/A SW5 29.63S WILMINGTON CLEAR 49 45 86 W9 29.67S $$ NCZ011>013-027>030-043-044-078>080-089-090>093-098-060900- COASTAL PLAIN CITY SKY/WX TMP DP RH WIND PRES REMARKS AHOSKIE HVY RAIN 50 49 97 S6 29.65S CLINTON CLOUDY 49 49 100 W7 29.67S FOG ELIZABETHTOWN CLOUDY 51 46 83 W3 29.68S GOLDSBORO CLOUDY 52 52 100 W10 29.62F GREENVILLE CLOUDY 52 52 100 SW7 29.67S HAVELOCK CLOUDY 53 50 89 W9 29.66R KENANSVILLE CLOUDY 50 48 92 CALM 29.66F KINSTON CLOUDY 51 50 97 SW6 29.64S FOG NEW BERN CLOUDY 52 50 93 SW6 29.66S RICHLANDS CLOUDY 49 48 97 SW7 29.66S ROCKY MOUNT LGT RAIN 51 51 100 N7 29.64S WASHINGTON DRIZZLE 51 50 96 CALM 29.63S WHITEVILLE NOT AVBL $$ AMZ130-135-150-152-154-156-158-170-250-252-270-ANZ085-086-088-633-658-670-060900- MARINE OBSERVATIONS STATION/POSITION TIME TEMP WIND PRES WAVE SWELL AIR SEA DIR/SP/G HT/PER HT/PER (UTC) (F) (DEG/KT/KT) (MB) (FT/S) (FT/S) CHESAPEAKE LIGHT 0800 49 20/ 10/ 11 1003.5 64 E VA BEACH 0750 49 51 340/ 14/ 16 1001.1 8/ 9 7/ 9 DUCK 0800 52 61 320/ 7/ 8 1002.5 2 E DUCK 0811 60 N/A 6/ 8 OREGON INLET 0800 51 60 350/ 3/ 6 1002.8 13E OREGON INLT 0800 55 N/A 6/ 8 5/ 8 HATTERAS CG 0800 56 66 310/ 7/ 10 1002.8 DIAMOND BUOY 0750 56 77 340/ 8/ 10 1003.3 4/ 8 5/ 8 CAPE LOOKOUT 0800 56 300/ 7/ 9 1003.4 BEAUFORT LAB 0800 53 67 300/ 7/ 10 1002.8 30 SE NEW RVR IN 0725 72 N/A 4/ 6 27 SE WRIGHTSVLE 0808 57 72 300/ 14/ 19 1004.2 5 SE WRIGHTSVLE 0708 54 69 310/ 14/ 19 1005.1 225 S CAPE HAT 0750 68 73 290/ 14/ 17 1005.2 8/ 8 7/ 8 41 SE CHARLESTON 0750 59 73 320/ 14/ 17 1006.4 5/ 7 3/ 7 $$

USA.gov is the U.S. government's official web portal to all federal, state and local government web resources and services.